[Iaude] MPEC N101: 2024 NC2 [a=2.07,e=0.49,i=8.4,H=24.9]
    mpec at cfa.harvard.edu 
    mpec at cfa.harvard.edu
       
    Mon Jul  8 10:38:31 EDT 2024
    
    
  
M.P.E.C. 2024-N101                                 Issued 2024 July 8, 14:36 UT
     The Minor Planet Electronic Circulars contain information on unusual
         minor planets, routine data on comets and natural satellites,
         and occasional editorial announcements.  They are published
    on behalf of Division F of the International Astronomical Union by the
          Minor Planet Center, Smithsonian Astrophysical Observatory,
                          Cambridge, MA 02138, U.S.A.
			  
             Prepared using the Tamkin Foundation Computer Network
                              MPC at CFA.HARVARD.EDU
            URL https://www.minorplanetcenter.net/    ISSN 1523-6714
                                    2024 NC2                                    
Observations:
     K24N02C* C2024 07 06.44960320 00 35.170-22 53 06.45         20.13wXEN101F52
     K24N02C  C2024 07 06.45490720 00 39.264-22 53 42.12         20.22wXEN101F52
     K24N02C  C2024 07 06.46022620 00 43.358-22 54 17.65         20.07wXEN101F52
     K24N02C  C2024 07 06.52155420 01 30.721-23 01 04.93         19.82GVEN101F51
     K24N02C  C2024 07 06.52219920 01 31.226-23 01 09.24         19.93GVEN101F51
     K24N02C KC2024 07 06.67470 20 03 35.87 -23 15 58.3          20.1 VqEN101E94
     K24N02C KC2024 07 06.68852 20 03 46.89 -23 17 27.6          19.9 VqEN101E94
     K24N02C KC2024 07 06.70177 20 03 57.68 -23 18 53.3          19.9 VqEN101E94
     K24N02C KC2024 07 07.02619 20 08 38.97 -23 56 01.3          19.4 GVEN101M21
     K24N02C KB2024 07 07.02683420 08 41.73 -23 58 03.5          19.4 GXEN101958
     K24N02C KB2024 07 07.03177320 08 45.84 -23 58 36.6          19.7 GXEN101958
     K24N02C KB2024 07 07.03671620 08 49.91 -23 59 09.0          19.5 GXEN101958
     K24N02C KB2024 07 07.03792720 08 50.76 -23 59 18.9          20.0 GXEN101I93
     K24N02C KB2024 07 07.04029120 08 52.72 -23 59 34.9          20.2 GXEN101I93
     K24N02C KB2024 07 07.04254520 08 54.59 -23 59 49.7          20.0 GXEN101I93
     K24N02C KC2024 07 07.05977 20 09 06.19 -23 59 44.0          19.6 GVEN101M21
     K24N02C KC2024 07 07.29244420 12 35.67 -24 27 45.5          19.5 GXEN101858
     K24N02C KC2024 07 07.29927520 12 41.40 -24 28 31.8          20.1 GXEN101858
     K24N02C KC2024 07 07.30616620 12 47.18 -24 29 19.1          19.9 GXEN101858
     K24N02C KC2024 07 08.43970 20 30 14.48 -26 37 04.4          19.6 RVEN101691
     K24N02C KC2024 07 08.45127 20 30 25.09 -26 38 20.9          20.0 RVEN101691
     K24N02C KC2024 07 08.46284 20 30 35.83 -26 39 36.5          20.1 RVEN101691
     K24N02C KC2024 07 08.58570420 32 40.709-26 51 00.07         19.4 GVEN101474
     K24N02C KC2024 07 08.58710020 32 42.046-26 51 09.29         19.1 GVEN101474
     K24N02C KC2024 07 08.58849320 32 43.366-26 51 18.14         20.1 GVEN101474
     K24N02C KC2024 07 08.58988720 32 44.681-26 51 27.40         20.1 GVEN101474
     K24N02C KC2024 07 08.59267120 32 47.261-26 51 46.08         20.2 GVEN101474
Observer details:
474 Mount John Observatory, Lake Tekapo.  Observers A. C. Gilmore, P. M.
    Kilmartin.  Measurer P. M. Kilmartin.  0.6-m f/6.3 Reflector + CCD.
691 Steward Observatory, Kitt Peak-Spacewatch.  Observer T. H. Bressi.  0.9-m
    f/3 reflector + CCD.
858 Tebbutt Observatory, Edgewood.  Observer F. B. Zoltowski.  0.51-m f/8.1
    Schmidt-Cassegrain + CCD.
958 Observatoire de Dax.  Observer P. Dupouy.  0.50-m f/4.5 Reflector + CMO.
E94 Possum Observatory, Gisborne.  Observer J. Drummond.  0.41-m f/4.5
    reflector + CCD.
F51 Pan-STARRS 1, Haleakala.  Observers J. Herman, T. Lowe, P. Minguez, A.
    Schultz, I. Smith.  Measurers K. Chambers, T. de Boer, J. Fairlamb, H.
    Gao, M. Huber, C.-C. Lin, E. Magnier, Y. Ramanjooloo, R. Wainscoat, R.
    Weryk.  1.8-m Ritchey-Chretien + CCD.
F52 Pan-STARRS 2, Haleakala.  Observers J. Herman, T. Lowe, P. Minguez, A.
    Schultz, I. Smith.  Measurers K. Chambers, T. de Boer, J. Fairlamb, H.
    Gao, M. Huber, C.-C. Lin, E. Magnier, Y. Ramanjooloo, R. Wainscoat, R.
    Weryk.  1.8-m Ritchey-Chretien + CCD.
I93 St Pardon de Conques.  Observer F. Losse.  0.40-m f/3.7 reflector + CMO.
M21 Schiaparelli Southern Observatory, Hakos.  Observers A. Aletti, F.
    Bellini, L. Buzzi, G. Galli.  Measurer G. Galli.  0.36-m f/8.4 reflector +
    CCD.
Orbital elements:
2024 NC2                                                 Earth MOID = 0.0558 AU
Epoch 2024 Mar. 31.0 TT = JDT 2460400.5                 MPC                     
M 320.40732              (2000.0)            P               Q                  
n   0.33079317     Peri.  205.25825     +0.63365880     +0.76068880             
a   2.0706102      Node   104.38829     -0.68281553     +0.63550710             
e   0.4913791      Incl.    8.35903     -0.36364746     +0.13222434             
P   2.98           H   24.94          G   0.15           U   8                  
Residuals in seconds of arc
240706 F52  0.1-  0.1+    240707 958  0.1-  0.3-    240707 858  0.1-  0.0
240706 F52  0.1+  0.1-    240707 958  0.4+  0.0     240708 691  0.8+  0.2-
240706 F52  0.0   0.0     240707 958  0.4+  1.0+    240708 691  0.4-  0.3-
240706 F51  0.3-  0.1-    240707 I93  0.2-  0.1+    240708 691  0.3-  0.1+
240706 F51  0.2-  0.1-    240707 I93  0.0   0.0     240708 474  0.4-  0.2-
240706 E94 (3.0+  1.0-)   240707 I93  0.1+  0.4+    240708 474  0.0   0.1-
240706 E94  0.8+  0.3-    240707 M21 (0.8-  1.7+)   240708 474  0.2+  0.5+
240706 E94  1.1+  0.1+    240707 858  0.0   0.2-    240708 474  0.3+  0.6+
240707 M21 (0.9+  0.8+)   240707 858  0.1-  0.2+    240708 474  0.1-  0.6+
Ephemeris:
2024 NC2                 a,e,i = 2.07, 0.49, 8                   q = 1.0532
Date    TT    R. A. (2000) Decl.     Delta      r    Elong.  Phase     V
2024 06 08    17 37 36.6 -00 47 45   0.2017  1.2027   156.6    19.6    22.9
...
2024 06 23    18 15 03.8 -06 03 47   0.1202  1.1316   162.5    15.6    21.5
...
2024 07 01    19 01 55.5 -13 59 03   0.08615 1.1015   169.6     9.6    20.5
...
2024 07 07    20 08 16.9 -23 52 59   0.06858 1.0832   165.5    13.6    20.1
2024 07 08    20 23 17.5 -25 45 39   0.06667 1.0806   162.8    16.1    20.1
2024 07 09    20 39 33.2 -27 37 48   0.06512 1.0780   159.8    19.0    20.1
...
2024 07 15    22 36 36.9 -36 09 33   0.06393 1.0653   138.6    39.1    20.7
...
2024 07 23    00 52 06.3 -36 23 08   0.08083 1.0552   117.1    59.0    21.7
...
2024 08 07    02 31 50.8 -29 51 40   0.1339  1.0586   105.9    67.2    23.1
A. U. Tomatic                (C) Copyright 2024 MPC           M.P.E.C. 2024-N101
    
    
More information about the Iaude
mailing list